Погода Викулово

Погода Викулово : погода сейчас, прогноз погоды и архив. Всё, что Вы хотите узнать о погоде Викулово!

Поиск расширенной информации на нашем сайте:

Другие новости

Новости СМИ2

Главная страница сайта

Новости сайта

02.10.2013

Напоминаем, что на нашем новом сайте вы можете получить высокодетализированные прогнозы погоды по пунктам России, СНГ и мира (включающие важные для авиации метеовеличины, такие как направление и скорость ветра, видимость, явления погоды, количество и форма облачности, нижняя и верхняя граница облачности), а также ознакомиться с разнообразными материалами по авиационной метеорологии и подборкой полезных ссылок на эту тему.

Сайт Метеоцентр.Азия посвящён разработке технологий оптимизации авиаметеорологического обслуживания, включая проектирование и перспективное создание нескольких автоматизированных авиаметеорологических систем:
- система выпуска высокодетальных прогностических карт явлений погоды для нижнего воздушного пространства по России и ближнему зарубежью;
- система верификации прогнозов TAF (выпускаемых синоптиками официальных АМСГ РФ и ближнего зарубежья) и AUTOTAF (выпускаемых сайтом Метеоцентр.Азия) - выявление ошибок, онлайн-сопоставление с фактической погодой METAR, автоматическое внесение коррективов в прогнозы при резком отклонении фактической погоды от прогноза, подсчёт оправдываемости прогнозов по элементам и в целом;
- система обработки, анализа и отображения авиаметеорологической информации для применения провайдерами метеорологической информации.

Рекомендуем: Купить природный камень песчаник в москве пластушка камень песчаник купить.

Погода Викулово - сегодня

Время (UTC), дата Ветер
(°,м/с) 
Видим.   Явления Облачность Т
(°С)
Тd
(°С)
f(%) Тe
(°С)
Pmin
(гПа)
dP
(гПа)
Po
(мм)
O2
(г/м3)
Тmin Tmax R s Состояние
почвы
03 25.05.17 250 (З) 5-10{10}  20000 м    3/3 600 м 
[Cu hum]
+10.3 +3 60 +9  1007.1  -0.3  748  290  +4.4        влажная 
06 25.05.17 270 (З) 5-14{14}  20000 м    9/9 600 м кучево-дожд. 
[Cb calv]
+11.1 +0.7 49 +10  1008.7  1.6  750  290           
12 25.05.17 310 (СЗ) 6-11{16}  20000 м    8/8 600 м 
[Cu med, cong]
+11.4 -6.7 27 +10  1014.5  3.1  754  292           
15 25.05.17 320 (СЗ) 3{11}  20000 м    1/1 600 м 
[Cu hum]
+9.9 -6.3 31 +9  1016.2  1.6  755  294    +12.5       
18 25.05.17 290 (З) 10 км    ясно 
+3.9 -3.5 58 +3  1018.5  2.1  757  301           
21 25.05.17 тихо ()   10 км    ясно 
+1 -3.8 70 +1  1020.5  1.8  758  305           
00 26.05.17 250 (З) 20000 м    ясно 
+1.9 -2.8 71 +3  1022.9  2.3  760  304           
03 26.05.17 220 (ЮЗ) 20000 м    ясно 
+10.2 -6 31 +11  1024.7  2.1  761  296  -0.1        влажная 
06 26.05.17 120 (ЮВ) 20000 м    ясно 
+12 -4.2 32 +12  1024.8  0.2  762  294           
09 26.05.17 160 (Ю) 20000 м    ясно 
+15.2 -2.5 29 +15  1023.3  -1.4  761  291           
12 26.05.17 190 (Ю) 20000 м    ясно 
+17.5 -3.2 24 +18  1021.3  -1.9  759  288           
18 26.05.17 170 (Ю) 20000 м    3/0 средняя 
[Ac trans]
+13.1 +3.1 51 +13  1018.5  -1.3  757  291           
21 26.05.17 180 (Ю) 20000 м    ясно 
+13.1 +2.2 47 +13  1017.3  -1.2  756  290           
00 27.05.17 180 (Ю) 20000 м    ясно 
+13 +2.8 50 +13  1016.1  -1.2  755  290           
03 27.05.17 190 (Ю) 20000 м    ясно 
+17.7 +3.5 39 +18  1014.8  -1.1  754  285  +12.7         
06 27.05.17 150 (ЮВ) 20000 м    3/0 верхняя 
[Ci sp]
+22.1 +4.7 32 +22  1013.3  -1.3  753  280           
12 27.05.17 170 (Ю) 4{10}  20000 м    9/0 верхняя 
[Ci sp]
+23.2 +2.5 26 +23  1009.8  -1.7  751  278           
18 27.05.17 120 (ЮВ) 10 км    10/0 средняя 
[Ac As]
+17.7 +4 40 +18  1004.7  -2.6  747  282           
21 27.05.17 120 (ЮВ) 10 км    10/0 средняя 
[Ac As]
+16.9 +4.5 44 +17  1001.2  -3.5  744  282           
00 28.05.17 090 (В) 20000 м  слаб. ливневой дождь{гроза}  9/3 600 м кучево-дожд., средняя 
[Cb calv|Ac As]
+14.2 +6.2 59 +15  998.9  -2.3  742  283           
03 28.05.17 130 (ЮВ) 10 км  слаб. ливневой дождь  10/4 600 м кучево-дожд., средняя 
[Cb calv|Ac As]
+13.7 +9 73 +14  997.7  -1.1  742  283  +12.9       
06 28.05.17 140 (ЮВ) 20000 м  {ливн. осадки}  9/6 600 м кучево-дожд., средняя 
[Cb calv|Ac As]
+15.9 +10.6 71 +18  996  -1.7  740  280           
09 28.05.17 160 (Ю) 20000 м    9/9 600 м кучево-дожд. 
[Cb calv]
+19.5 -12.1 11 +20  995.2  -0.7  740  279           
12 28.05.17 290 (З) 10 км  гроза без осадков{ливн. осадки}  9/8 600 м кучево-дожд., верхняя 
[Cb cap|Ci fib]
+15.4 +14.2 93 +24  995.4  0.1  740  279           
15 28.05.17 270 (З) 20000 м  {гроза}  8/3 600 м средняя, верхняя 
[Sc|Ac trans|Ci sp]
+17.3 +12.2 72 +23  996.2  0.8  740  278    +20.1     
Время (UTC), дата Ветер
(°,м/с) 
Видим.   Явления Облачность Т
(°С)
Тd
(°С)
f(%) Тe
(°С)
Pmin
(гПа)
dP
(гПа)
Po
(мм)
O2
(г/м3)
Тmin Tmax R s Состояние
почвы

Для получения пояснительной информации подведите курсор к названию столбца.

ПОГОДА Викулово - архив

Всё, что Вы хотите узнать о погоде Викулово - удобно и подробно!

Выберите нужную дату (начиная с 1 января 2015* года) и нажмите кнопку "Найти".
Будут отображены архивные сводки погоды по пункту Викулово, начиная с указанной даты.


Отображать данные в формате CSV (для использования в таблицах Excel)


Внимание! Наш архив погоды предназначен исключительно для личного некоммерческого использования в познавательных целях. Если Вам необходимы официальные справки о состоянии погоды (для производственных, юридических, коммерческих и т.п. целей), обращайтесь в органы Росгидромета.

*Примечание: данная дата относится к архиву по метеостанциям СССР (Россия, СНГ, Балтия).
Архив по метеостанциям Зарубежной Европы и Азии (кроме Китая) хранится 10 дней, по другим регионам земного шара (Китай, Африка, Америка, Австралия, Океания) - 1 день.

Викулово - район местоположения метеостанции


Название, широта, долгота, высота метеостанции:
Викулово 56.8°ш. 70.6°д. 78 м над ур. моря [Российская Федерация]

Дополнительная информация

В oтличие oт бoльшинства пoгoдных сайтoв мы публикуем пoдрoбную метеoинфoрмацию в детальнoм прoфессиoнальнoм фoрмате.

Характеристики температуры и влажнoсти вoздуха измеряются на высoте 2 м в тени вдали oт зданий и деревьев.
Скoрoсть ветра измеряется на высoте 10 м (на урoвне рoста челoвека скoрoсть ветра ниже в 1.5-2 раза). Если метеoстанция нахoдится в гoрoде или в лесу, тo скoрoсть ветра занижена на 2-4 м/с пo сравнению с oткрытым местoм. Скoрoсть ветра над акватoриями крупных рек и oзёр, а также на вершинах хoлмoв на 2-5 м/с выше, чем в oбычных услoвиях.
Атмoсфернoе давление в разных тoчках местнoсти мoжет значительнo oтличаться oт давления на метеoстанции, в зависимoсти oт услoвий рельефа (при пoдъёме на 10 м давление пoнижается примернo на 1 мм рт.ст.).